When you browse on this site, cookies collect data to enhance your experience and personalize the content and advertising you see.
Visit our Privacy Policy to learn more. By continuing to use the site, you agree to this use of cookies and data.
  • In Österreich
  • Länderverzeichnis
  • Für 7 Tage
  • Wassertemperatur
  • Wetterkarte
  • News
  • Widgets
  • user-avatar
    Anmelden

    Stündliche Wetter Yamunanagar

    Heute, 30 Mai, Samstag

    Zeit Temperatur Niederschläge Wind Luftdruck Luftfeuchtigkeit
    00:00 +28°C° 0 mm 4 m/S 732 mmHg 59%
    01:00 +28°C° 0 mm 4 m/S 732 mmHg 56%
    02:00 +29°C° 0 mm 5 m/S 732 mmHg 53%
    03:00 +28°C° 0 mm 4 m/S 732 mmHg 55%
    04:00 +28°C° 0 mm 3 m/S 732 mmHg 56%
    05:00 +28°C° 0 mm 2 m/S 732 mmHg 57%
    06:00 +29°C° 0 mm 3 m/S 732 mmHg 52%
    07:00 +31°C° 0 mm 3 m/S 733 mmHg 46%
    08:00 +33°C° 0 mm 3 m/S 734 mmHg 41%
    09:00 +35°C° 0 mm 3 m/S 733 mmHg 36%
    10:00 +37°C° 0 mm 4 m/S 733 mmHg 31%
    11:00 +40°C° 0 mm 4 m/S 733 mmHg 27%
    12:00 +40°C° 0 mm 3 m/S 733 mmHg 25%
    13:00 +40°C° 0 mm 3 m/S 732 mmHg 23%
    14:00 +42°C° 0 mm 3 m/S 732 mmHg 21%
    15:00 +42°C° 0 mm 3 m/S 732 mmHg 21%
    16:00 +42°C° 0 mm 3 m/S 731 mmHg 21%
    17:00 +40°C° 0 mm 3 m/S 731 mmHg 22%
    18:00 +37°C° 0.7 mm 3 m/S 732 mmHg 32%
    19:00 +34°C° 0.7 mm 3 m/S 732 mmHg 43%
    20:00 +30°C° 0.7 mm 4 m/S 733 mmHg 54%
    21:00 +29°C° 0.3 mm 3 m/S 733 mmHg 56%
    22:00 +29°C° 0.3 mm 3 m/S 733 mmHg 58%
    23:00 +28°C° 0.3 mm 2 m/S 733 mmHg 60%

    Morgen, 31 Mai, Sonntag

    Zeit Temperatur Niederschläge Wind Luftdruck Luftfeuchtigkeit
    00:00 +29°C° 0 mm 3 m/S 733 mmHg 58%
    01:00 +29°C° 0 mm 3 m/S 732 mmHg 55%
    02:00 +29°C° 0 mm 3 m/S 732 mmHg 53%
    03:00 +29°C° 0.1 mm 3 m/S 732 mmHg 55%
    04:00 +29°C° 0.1 mm 3 m/S 732 mmHg 56%
    05:00 +28°C° 0.1 mm 2 m/S 732 mmHg 58%
    06:00 +29°C° 0 mm 3 m/S 733 mmHg 54%
    07:00 +30°C° 0 mm 3 m/S 733 mmHg 50%
    08:00 +31°C° 0 mm 3 m/S 734 mmHg 47%
    09:00 +33°C° 0.1 mm 3 m/S 734 mmHg 45%
    10:00 +33°C° 0.1 mm 3 m/S 734 mmHg 44%
    11:00 +33°C° 0.1 mm 3 m/S 734 mmHg 42%
    12:00 +33°C° 0.1 mm 4 m/S 734 mmHg 43%
    13:00 +33°C° 0.1 mm 4 m/S 734 mmHg 43%
    14:00 +33°C° 0.1 mm 5 m/S 734 mmHg 43%
    15:00 +33°C° 0 mm 5 m/S 734 mmHg 44%
    16:00 +32°C° 0 mm 5 m/S 733 mmHg 45%
    17:00 +32°C° 0 mm 5 m/S 733 mmHg 46%
    18:00 +30°C° 0 mm 4 m/S 733 mmHg 47%
    19:00 +29°C° 0 mm 4 m/S 733 mmHg 48%
    20:00 +29°C° 0 mm 3 m/S 733 mmHg 49%
    21:00 +28°C° 0 mm 3 m/S 733 mmHg 50%
    22:00 +28°C° 0 mm 2 m/S 733 mmHg 50%
    23:00 +28°C° 0 mm 2 m/S 733 mmHg 50%

    übermorgen, 1 Juni, Montag

    Zeit Temperatur Niederschläge Wind Luftdruck Luftfeuchtigkeit
    00:00 +28°C° 0.1 mm 2 m/S 733 mmHg 52%
    01:00 +27°C° 0.1 mm 1 m/S 733 mmHg 54%
    02:00 +27°C° 0.1 mm 1 m/S 733 mmHg 55%
    03:00 +26°C° 0.1 mm 2 m/S 733 mmHg 58%
    04:00 +26°C° 0.1 mm 2 m/S 733 mmHg 60%
    05:00 +26°C° 0.1 mm 2 m/S 733 mmHg 62%
    06:00 +28°C° 0 mm 2 m/S 733 mmHg 55%
    07:00 +30°C° 0 mm 2 m/S 734 mmHg 48%
    08:00 +32°C° 0 mm 2 m/S 734 mmHg 41%
    09:00 +35°C° 0 mm 2 m/S 734 mmHg 36%
    10:00 +36°C° 0 mm 1 m/S 734 mmHg 32%
    11:00 +39°C° 0 mm 1 m/S 734 mmHg 27%
    12:00 +40°C° 0 mm 2 m/S 734 mmHg 24%
    13:00 +42°C° 0 mm 3 m/S 733 mmHg 22%
    14:00 +42°C° 0 mm 4 m/S 733 mmHg 19%
    15:00 +42°C° 0 mm 4 m/S 732 mmHg 20%
    16:00 +42°C° 0 mm 5 m/S 732 mmHg 20%
    17:00 +42°C° 0 mm 5 m/S 731 mmHg 20%
    18:00 +40°C° 0 mm 5 m/S 731 mmHg 23%
    19:00 +38°C° 0 mm 4 m/S 732 mmHg 25%
    20:00 +36°C° 0 mm 3 m/S 732 mmHg 28%
    21:00 +35°C° 0 mm 3 m/S 732 mmHg 30%
    22:00 +34°C° 0 mm 2 m/S 732 mmHg 32%
    23:00 +34°C° 0 mm 2 m/S 732 mmHg 34%

    2 Juni, Dienstag

    Zeit Temperatur Niederschläge Wind Luftdruck Luftfeuchtigkeit
    00:00 +32°C° 0 mm 2 m/S 732 mmHg 36%
    01:00 +31°C° 0 mm 2 m/S 732 mmHg 39%
    02:00 +30°C° 0 mm 2 m/S 731 mmHg 41%
    03:00 +30°C° 0 mm 2 m/S 731 mmHg 41%
    04:00 +30°C° 0 mm 2 m/S 731 mmHg 42%
    05:00 +29°C° 0 mm 1 m/S 731 mmHg 42%
    06:00 +31°C° 0 mm 1 m/S 732 mmHg 38%
    07:00 +33°C° 0 mm 1 m/S 732 mmHg 34%
    08:00 +33°C° 0 mm 0 m/S 732 mmHg 30%
    09:00 +37°C° 0 mm 1 m/S 733 mmHg 26%
    10:00 +40°C° 0 mm 2 m/S 733 mmHg 23%
    11:00 +43°C° 0 mm 3 m/S 733 mmHg 19%
    12:00 +43°C° 0 mm 4 m/S 732 mmHg 18%
    13:00 +45°C° 0 mm 5 m/S 732 mmHg 16%
    14:00 +46°C° 0 mm 5 m/S 731 mmHg 15%
    15:00 +46°C° 0 mm 6 m/S 731 mmHg 15%
    16:00 +45°C° 0 mm 6 m/S 730 mmHg 15%
    17:00 +45°C° 0 mm 6 m/S 730 mmHg 15%
    18:00 +42°C° 0 mm 5 m/S 730 mmHg 17%
    19:00 +41°C° 0 mm 5 m/S 730 mmHg 20%
    20:00 +38°C° 0 mm 4 m/S 730 mmHg 22%
    21:00 +37°C° 0 mm 3 m/S 730 mmHg 24%
    22:00 +37°C° 0 mm 3 m/S 730 mmHg 25%
    23:00 +36°C° 0 mm 2 m/S 730 mmHg 27%

    3 Juni, Mittwoch

    Zeit Temperatur Niederschläge Wind Luftdruck Luftfeuchtigkeit
    00:00 +35°C° 0 mm 3 m/S 730 mmHg 29%
    01:00 +34°C° 0 mm 3 m/S 730 mmHg 31%
    02:00 +34°C° 0 mm 3 m/S 730 mmHg 33%
    03:00 +33°C° 0 mm 3 m/S 730 mmHg 35%
    04:00 +31°C° 0 mm 2 m/S 730 mmHg 36%
    05:00 +31°C° 0 mm 2 m/S 730 mmHg 38%
    06:00 +34°C° 0 mm 2 m/S 731 mmHg 34%
    07:00 +35°C° 0 mm 2 m/S 731 mmHg 30%
    08:00 +37°C° 0 mm 2 m/S 731 mmHg 26%
    09:00 +39°C° 0 mm 2 m/S 731 mmHg 23%
    10:00 +42°C° 0 mm 3 m/S 731 mmHg 21%
    11:00 +44°C° 0 mm 3 m/S 731 mmHg 18%
    12:00 +45°C° 0 mm 3 m/S 731 mmHg 16%
    13:00 +45°C° 0 mm 4 m/S 730 mmHg 15%
    14:00 +47°C° 0 mm 5 m/S 730 mmHg 14%
    15:00 +47°C° 0 mm 5 m/S 729 mmHg 14%
    16:00 +46°C° 0 mm 5 m/S 729 mmHg 14%
    17:00 +46°C° 0 mm 5 m/S 728 mmHg 15%
    18:00 +43°C° 0 mm 4 m/S 728 mmHg 16%
    19:00 +42°C° 0 mm 3 m/S 729 mmHg 17%
    20:00 +39°C° 0 mm 2 m/S 729 mmHg 19%
    21:00 +38°C° 0 mm 2 m/S 729 mmHg 20%
    22:00 +37°C° 0 mm 2 m/S 729 mmHg 21%
    23:00 +36°C° 0 mm 2 m/S 730 mmHg 23%

    4 Juni, Donnerstag

    Zeit Temperatur Niederschläge Wind Luftdruck Luftfeuchtigkeit
    00:00 +36°C° 0 mm 2 m/S 730 mmHg 24%
    01:00 +34°C° 0 mm 1 m/S 730 mmHg 26%
    02:00 +33°C° 0 mm 1 m/S 730 mmHg 27%
    03:00 +33°C° 0 mm 1 m/S 730 mmHg 29%
    04:00 +32°C° 0 mm 2 m/S 730 mmHg 31%
    05:00 +32°C° 0 mm 2 m/S 730 mmHg 33%
    06:00 +34°C° 0 mm 2 m/S 730 mmHg 31%
    07:00 +36°C° 0 mm 2 m/S 730 mmHg 28%
    08:00 +38°C° 0 mm 3 m/S 730 mmHg 26%
    09:00 +39°C° 0 mm 3 m/S 730 mmHg 23%
    10:00 +42°C° 0 mm 4 m/S 730 mmHg 20%
    11:00 +44°C° 0 mm 4 m/S 730 mmHg 17%
    12:00 +45°C° 0 mm 4 m/S 730 mmHg 15%
    13:00 +47°C° 0 mm 4 m/S 729 mmHg 14%
    14:00 +48°C° 0 mm 4 m/S 729 mmHg 12%
    15:00 +47°C° 0 mm 4 m/S 729 mmHg 13%
    16:00 +45°C° 0 mm 4 m/S 729 mmHg 14%
    17:00 +45°C° 0 mm 4 m/S 729 mmHg 14%
    18:00 +43°C° 0 mm 3 m/S 729 mmHg 16%
    19:00 +42°C° 0 mm 3 m/S 729 mmHg 18%
    20:00 +40°C° 0 mm 2 m/S 730 mmHg 20%
    21:00 +38°C° 0 mm 2 m/S 730 mmHg 23%
    22:00 +37°C° 0 mm 2 m/S 730 mmHg 27%
    23:00 +35°C° 0 mm 1 m/S 730 mmHg 30%
    Mehr zeigen